Simultaneous Nadir Overpasses (SNOs) Predictions

Prediction of SNOs between FY3D and METOP-C Satellite Orbit:

Table of predicted SNOs for the next 14.0 days since TLE Epoch: 9/24/2022
Index Date (FY3D) Time (FY3D) Lat,Lon (FY3D) SZA (FY3D ) Date (METOP-C) Time (METOP-C) Lat,Lon (METOP-C) SZA (METOP-C ) Distance(km) Time Diff (sec)
1 09/26/2022 19:38:28 75.00,-121.44 76.44 09/26/2022 19:39:33 74.96,-117.99 76.35 99.79 65
2 09/26/2022 20:29:10 -74.83, 46.35 103.73 09/26/2022 20:30:18 -74.79, 48.89 103.80 74.19 68
3 09/26/2022 21:19:52 74.65,-145.84 76.10 09/26/2022 21:21:02 74.59,-144.32 76.02 45.26 70
4 09/26/2022 22:10:34 -74.48, 21.93 104.07 09/26/2022 22:11:47 -74.43, 22.58 104.13 20.30 73
5 09/26/2022 23:01:17 74.35,-170.40 75.81 09/26/2022 23:02:29 74.33,-170.36 75.78 2.85 72
6 09/26/2022 23:52:02 -74.33, -3.03 104.21 09/26/2022 23:53:11 -74.31, -3.07 104.22 2.08 69
7 09/27/2022 00:42:48 74.33, 164.26 75.82 09/27/2022 00:43:50 74.35, 164.36 75.83 3.71 62
8 09/27/2022 01:33:33 -74.31, -28.37 104.19 09/27/2022 01:34:32 -74.34, -28.35 104.17 2.76 59
9 09/27/2022 02:24:18 74.32, 138.91 75.84 09/27/2022 02:25:11 74.33, 138.96 75.84 1.66 53
10 09/27/2022 03:15:03 -74.30, -53.72 104.18 09/27/2022 03:15:53 -74.31, -53.75 104.17 1.74 50
11 09/27/2022 04:05:49 74.31, 113.57 75.85 09/27/2022 04:06:33 74.30, 113.56 75.84 0.58 44
12 09/27/2022 04:56:34 -74.28, -79.06 104.17 09/27/2022 04:57:15 -74.29, -79.15 104.16 2.57 41
13 09/27/2022 05:47:20 74.29, 88.22 75.86 09/27/2022 05:47:55 74.28, 88.16 75.85 2.55 35
14 09/27/2022 06:38:06 -74.32,-104.53 104.10 09/27/2022 06:38:36 -74.31,-104.42 104.11 3.38 30
15 09/27/2022 07:28:51 74.28, 62.88 75.88 09/27/2022 07:29:16 74.30, 62.89 75.90 2.62 25
16 09/27/2022 08:19:37 -74.31,-129.88 104.09 09/27/2022 08:19:58 -74.29,-129.82 104.11 2.40 21
17 09/27/2022 09:10:22 74.27, 37.54 75.89 09/27/2022 09:10:38 74.28, 37.48 75.90 2.15 16
18 09/27/2022 10:01:08 -74.29,-155.22 104.08 09/27/2022 10:01:20 -74.27,-155.22 104.10 2.88 12
19 09/27/2022 10:51:53 74.25, 12.19 75.90 09/27/2022 10:52:00 74.26, 12.08 75.91 3.31 7
20 09/27/2022 11:42:39 -74.28, 179.44 104.06 09/27/2022 11:42:41 -74.29, 179.50 104.05 2.46 2
21 09/27/2022 12:33:25 74.29, -13.28 75.97 09/27/2022 12:33:21 74.28, -13.19 75.96 2.68 4
22 09/27/2022 13:24:10 -74.26, 154.09 104.05 09/27/2022 13:24:03 -74.27, 154.10 104.05 0.46 7
23 09/27/2022 14:14:56 74.27, -38.62 75.98 09/27/2022 14:14:43 74.26, -38.59 75.96 2.12 13
24 09/27/2022 15:05:41 -74.25, 128.75 104.04 09/27/2022 15:05:25 -74.24, 128.70 104.04 1.58 16
25 09/27/2022 15:56:27 74.26, -63.96 75.99 09/27/2022 15:56:05 74.23, -63.99 75.97 3.22 22
26 09/27/2022 16:47:12 -74.24, 103.40 104.02 09/27/2022 16:46:47 -74.22, 103.30 104.04 3.60 25
27 09/27/2022 17:37:58 74.25, -89.31 76.00 09/27/2022 17:37:26 74.26, -89.27 76.02 1.69 32
28 09/27/2022 18:28:43 -74.22, 78.06 104.01 09/27/2022 18:28:08 -74.25, 78.03 103.99 2.63 35
29 09/27/2022 19:19:29 74.23,-114.65 76.02 09/27/2022 19:18:48 74.23,-114.67 76.02 0.53 41
30 09/27/2022 20:10:14 -74.21, 52.72 104.00 09/27/2022 20:09:30 -74.22, 52.63 103.98 2.99 44
31 09/27/2022 21:01:00 74.22,-140.00 76.03 09/27/2022 21:00:10 74.21,-140.07 76.02 2.49 50
32 09/27/2022 21:51:46 -74.24, 27.25 103.93 09/27/2022 21:50:51 -74.25, 27.35 103.93 3.17 55
33 09/27/2022 22:42:31 74.21,-165.34 76.04 09/27/2022 22:41:31 74.23,-165.35 76.08 3.22 60
34 09/27/2022 23:33:17 -74.23, 1.90 103.92 09/27/2022 23:32:13 -74.22, 1.95 103.93 1.73 64
35 09/28/2022 00:24:02 74.19, 169.31 76.06 09/28/2022 00:22:53 74.21, 169.25 76.08 2.80 69
36 09/28/2022 01:14:48 -74.22, -23.44 103.91 09/28/2022 01:13:35 -74.20, -23.45 103.92 2.00 73
37 09/28/2022 02:05:30 74.03, 144.34 75.92 09/28/2022 02:04:18 74.04, 143.48 75.94 26.25 72
38 09/28/2022 02:56:13 -73.91, -48.05 104.20 09/28/2022 02:55:02 -73.93, -49.45 104.16 43.25 71
39 09/28/2022 03:46:54 73.67, 119.84 75.58 09/28/2022 03:45:47 73.67, 117.26 75.61 80.80 67
40 09/28/2022 04:37:37 -73.55, -72.57 104.53 09/28/2022 04:36:31 -73.56, -75.66 104.48 97.49 66



Historial Predications of SNOs between FY3D and METOP-C
